国家海洋和大气管理局 8号 (NOAA 8)

导读 | 星芒AI

NOAA 8 是美国国家海洋和大气管理局(NOAA)于1981年12月12日发射的极轨气象卫星,属于TIROS-N系列。该卫星搭载了先进的高分辨率辐射计(AVHRR)和其他气象传感器,用于收集全球气象数据,支持天气预报、气候监测和环境研究。NOAA 8 在轨运行多年,为气象服务提供了关键数据,直到最终退役。其成功运行标志着极轨气象卫星技术的重要进展。

基本信息
目录编号:
13923
目录名称:
NOAA 8
国际标识:
1983-022A
轨道中心:
EARTH
卫星名称:
国家海洋和大气管理局 8号
卫星全名:
国家海洋和大气管理局 8号 (NOAA 8)
卫星状态:
在轨 (已飞行15558 天)
发射日期:
1983-03-28 UTC
国别 :
美国 (US)
星等 :
--
轨道信息
数据来源 国际轨道数据 AOE轨道数据
星历时间 2025-10-31T08:23:15+0800
13小时前
查看轨道信息
2025-10-30T17:00:00+0800
1天前
查看轨道信息
半长轴 7170.879km 7170.883km
偏心率 0.0014288 0.0013865
轨道倾角 98.739° 98.740°
近地点辐角 205.209° 208.746°
升交点赤经 311.409° 310.767°
平近点角 154.840° 93.278°
近地点 782.498km 782.805km
远地点 802.99km 802.691km
周期 100.721分钟 100.721分钟
每日圈数 14.296976 14.296964
详细信息
卫星平台:
TIROS-N
平衡模式:
三轴稳定
覆盖范围:
美洲
制造商(研发单位):
洛克希德·马丁公司
制造商所在国:
美国
使用方式:
暂无
卫星简介
NOAA卫星是美国国家海洋大气局的第三代实用气象观测卫星,第一代称为“泰罗斯”(TIROS)系列(1960-1965年),第二代称为“艾托斯”(ITOS)/NOAA系列(1970-1976年),其后运行的第三代称为TIROS--N/NOAA系列。其轨道是接近正圆的太阳同步轨道,轨道高度为870千米和833千米,轨道倾角为98.9°和98.7°,周期为101.4分钟。NOAA的应用目的是日常的气象业务,平时有两颗卫星运行。由于一颗卫星可以每天至少可以对地面同一地区进行两次观测,所以两颗卫星就可以进行四次以上的观测。该卫星已退役。
2D轨道图
3D轨道图
轨道高度分析图
轨道倾角分析图
轨道综合分析图
查看轨道综合分析图